Zurück zum Katalog

GLOBALSTAR M029

AktivKommunikationLEO
NORAD 25963·PAYLOAD·🇺🇸 United States

Gestartet Nov 22, 1999 von Baikonur Cosmodrome

Loading…

Nächste Überflüge (nächste 24 Stunden)

TLE

AktuellSource: Space-Track

Epoche: Sep 14, 2026, 10:01 UTC

1 25963U 99062C   26257.41775846 -.00000058  00000-0  34691-3 0  9995
2 25963  51.9814 305.9576 0002286 283.9383  89.1834 11.99913537223653

Verfolge GLOBALSTAR M029 in Echtzeit mit AllMySat

Download on the App Store